www.pogodaiklimat.ru

Погода и климат >> Архив погоды >> Босния и Герцеговина >> Градачац


ПОГОДА в Градачаце

  • Прогноз погоды в Градачаце
  • Монитор погоды в Градачаце

АРХИВ ПОГОДЫ в Градачаце

Время (UTC), дата Ветер
(напр.,м/с)
 
Видим.   Явления Облачность Т
(С)
Тd
(С)
f
(%)
Тe
(С)
Тes
(С)
Комфортность P
(гПа)
Po
(гПа)
Тmin
(С)
Tmax
(С)
R
(мм)
R24
(мм)
S
(см)
06 16.08 Ю 1 15 км 1/0 2000 м
[Ac lent]
+16.6 +10.3 66 +18 +21 1017.5 991.1 +15.6 +24.4
07 16.08 СВ 1 15 км 1/0
[Ac lent]
+20.4 +12.8 62 +24 +31 комфорт 1017.6 991.6
08 16.08 С 2 15 км 1/0
[Ac lent]
+21.4 +12.3 56 +24 +33 комфорт 1017.8 991.8
09 16.08 С 2 15 км 4/1 1000 м
[Cu hum Ac lent Ci fib]
+22.6 +11.6 50 +25 +35 комфорт 1018.0 992.1
10 16.08 С 2 15 км 5/3 1000 м
[Cu hum Ac lent Ci fib]
+24.0 +11.0 44 +25 +35 комфорт 1017.9 992.1
11 16.08 СВ 2 15 км 6/3 1000 м
[Cu hum Ac lent Ci fib]
+24.4 +9.2 38 +25 +34 комфорт 1017.8 992.1
12 16.08 С 2 15 км 6/3 1000 м
[Cu hum Ac lent Ci fib]
+24.8 +9.0 37 +25 +34 комфорт 1017.3 991.6
13 16.08 С 2 15 км 6/3 1000 м
[Cu hum Ac lent Ci fib]
+25.4 +9.9 38 +26 +33 жарко 1017.2 991.6
14 16.08 С 2 15 км 6/3 1000 м
[Cu hum Ac lent Ci fib]
+25.4 +10.8 40 +26 +31 жарко 1017.2 991.6
06 17.08 Ю 2 10 км 1/0 2000 м
[Ac lent]
+17.4 +13.4 77 +18 +21 1019.0 992.7 +15.5 +25.6
07 17.08 Ю 1 15 км 1/0
[Ac lent]
+19.8 +13.9 69 +23 +30 комфорт 1019.3 993.2
08 17.08 В 1 15 км 4/1 1000 м
[Cu hum Ac lent Ci fib]
+22.8 +13.4 55 +26 +35 жарко 1019.1 993.2
09 17.08 С 1 15 км 5/3 1000 м
[Cu Sc Ac lent Ci fib]
+23.8 +13.5 52 +26 +35 жарко 1019.2 993.4
10 17.08 СЗ 2 15 км 5/3 1000 м
[Cu Sc Ac lent Ci fib]
+24.0 +13.8 53 +26 +36 жарко 1019.1 993.3
11 17.08 ЮВ 2 15 км 6/3 1000 м
[Cu hum Ac lent Ci fib]
+26.6 +13.6 45 +29 +37 жарко 1018.1 992.6
12 17.08 В 2 15 км 6/3 1000 м
[Cu hum Ac lent Ci fib]
+26.6 +13.6 45 +29 +37 жарко 1017.6 992.1
13 17.08 СВ 1 15 км 6/3 1000 м
[Cu hum Ac lent Ci fib]
+26.4 +13.1 44 +28 +36 жарко 1017.6 992.1
14 17.08 ЮВ 1 15 км 4/3 1000 м
[Cu hum Ac lent]
+27.4 +12.5 40 +29 +35 жарко 1017.0 991.6
15 17.08 С 1 15 км 4/3 1000 м
[Cu hum Ac lent]
+26.6 +11.4 39 +28 +31 жарко 1017.1 991.6
20 17.08 Ю 1 15 км 4/0
[Ac lent]
+20.6 +12.5 60 +24 +24 комфорт 1017.2 991.2
06 18.08 Ю 1 15 км 3/0 2000 м
[Ac lent Ci fib]
+19.0 +11.9 63 +21 +24 комфорт 1017.3 991.1 +15.6 +28.0
07 18.08 ЮВ 2 15 км 3/0
[Ac lent Ci fib]
+22.2 +14.0 60 +25 +31 комфорт 1017.0 991.1
08 18.08 ЮВ 3 15 км 4/0
[Ac lent Ci fib]
+25.6 +15.7 54 +29 +35 душно 1016.6 991.1
09 18.08 ЮВ 2 15 км 3/0
[Ac lent Ci fib]
+26.8 +14.8 48 +29 +41 жарко 1017.0 991.5
10 18.08 ЮВ 2 15 км 3/0
[Ac lent Ci fib]
+28.0 +14.3 43 +30 +44 жарко 1016.9 991.5
11 18.08 В 2 15 км 3/0
[Ac lent Ci fib]
+28.6 +11.6 35 +29 +43 жарко 1016.9 991.6
12 18.08 ЮЗ 2 15 км 3/0 2000 м
[Ac lent Ci fib]
+29.6 +11.5 33 +30 +43 жарко 1016.5 991.3
13 18.08 ЮВ 2 15 км 1/0
[Ac lent]
+30.4 +11.8 32 +31 +42 жарко 1016.3 991.1
14 18.08 ЮВ 2 15 км 1/0
[Ac lent]
+31.2 +13.0 33 +32 +40 жарко 1016.2 991.1
15 18.08 В 1 15 км 1/0
[Ac lent]
+30.8 +12.2 32 +31 +36 жарко 1015.7 990.6
20 18.08 Ю 2 15 км 3/0
[Ac lent]
+22.6 +11.9 51 +25 +25 комфорт 1016.3 990.5
06 19.08 СЗ 2 15 км 3/0 2000 м
[Ac lent Ci fib]
+20.2 +12.6 62 +23 +25 комфорт 1017.1 991.0 +20.0 +31.6
07 19.08 ЮЗ 1 15 км 3/0
[Ac lent Ci fib]
+24.2 +15.8 59 +27 +34 жарко 1017.0 991.3
08 19.08 ЮЗ 1 15 км 1/0
[Ac lent]
+27.8 +14.9 45 +30 +41 жарко 1016.9 991.5
09 19.08 С 2 15 км 1/0
[Ac lent]
+28.2 +16.7 50 +32 +44 душно 1017.0 991.7
10 19.08 С 2 15 км 1/0
[Ac lent]
+29.4 +16.8 47 +33 +47 душно 1017.2 992.0
11 19.08 СЗ 3 15 км 1/0
[Ac lent]
+30.0 +16.4 44 +33 +45 душно 1017.2 992.0
12 19.08 СВ 1 15 км 1/0 2000 м
[Ac lent]
+31.2 +15.9 40 +34 +49 душно 1017.1 992.0
13 19.08 С 1 15 км 1/0
[Ac lent]
+31.8 +16.0 39 +35 +47 очень
душно
1017.0 992.0
14 19.08 В 2 15 км ясно +33.2 +16.3 36 +36 +44 очень
душно
1016.6 991.7
15 19.08 СВ 2 15 км ясно +33.2 +16.5 37 +36 +41 очень
душно
1016.6 991.7
20 19.08 Ю 1 15 км ясно +26.4 +14.7 49 +29 +29 жарко 1017.2 991.7
06 20.08 СЗ 1 10 км 1/0 2000 м
[Ac lent]
+22.2 +16.5 70 +26 +30 душно 1019.0 993.1 +20.6 +33.6
07 20.08 С 2 10 км 1/0
[Ac lent]
+24.2 +17.4 66 +28 +34 душно 1018.8 993.1
08 20.08 ЮВ 2 10 км 1/0
[Ac lent]
+28.4 +19.2 57 +34 +43 очень
душно
1018.6 993.3
09 20.08 С 2 15 км 1/0
[Ac lent]
+29.4 +19.3 55 +35 +47 очень
душно
1018.8 993.6
10 20.08 В 2 15 км 1/0
[Ac lent]
+30.8 +18.3 47 +35 +49 очень
душно
1018.7 993.6
11 20.08 В 2 15 км 1/0
[Ac lent]
+31.6 +18.8 47 +37 +51 опасность
солнечного
удара
1018.7 993.6
12 20.08 С 1 15 км 1/0 2000 м
[Ac lent]
+32.6 +19.0 45 +38 +53 опасность
солнечного
удара
1018.3 993.3
13 20.08 В 2 15 км 1/0
[Ac lent]
+33.6 +19.2 43 +39 +50 очень
душно
1018.0 993.1
14 20.08 В 2 15 км 1/0
[Ac lent]
+34.2 +18.9 41 +39 +47 очень
душно
1017.9 993.1
15 20.08 В 2 15 км 1/0
[Ac lent]
+34.4 +18.3 39 +39 +43 очень
душно
1017.4 992.6
20 20.08 ЮВ 2 15 км 1/0
[Ac lent]
+26.2 +15.5 52 +29 +29 жарко 1018.1 992.6
06 21.08 В 1 10 км 1/0 2000 м
[Ac lent]
+22.2 +16.5 70 +26 +29 душно 1019.0 993.1 +20.8 +34.6
07 21.08 С 2 10 км 1/0
[Ac lent]
+24.4 +18.1 68 +29 +34 душно 1018.8 993.1
08 21.08 СЗ 4 15 км 1/1 1000 м
[Cu hum]
+25.4 +18.5 66 +30 +36 душно 1019.7 994.1
09 21.08 СЗ 4 15 км 1/1 1000 м
[Cu hum]
+26.0 +18.7 64 +31 +39 очень
душно
1020.2 994.6
10 21.08 С 4 15 км 1/1 1000 м
[Cu med, cong]
+27.6 +18.4 57 +32 +41 очень
душно
1020.4 995.0
11 21.08 С 4 15 км 1/1 1000 м
[Cu med, cong]
+29.6 +17.9 49 +34 +43 очень
душно
1020.3 995.0
12 21.08 С 5 15 км 1/1 1000 м
[Cu med, cong]
+30.2 +18.1 48 +35 +41 очень
душно
1020.1 994.9
13 21.08 С 4 15 км 3/1 1000 м
[Cu med, cong Ac lent]
+30.8 +18.7 49 +36 +42 очень
душно
1020.1 994.9
14 21.08 С 4 15 км 3/1 1000 м
[Cu med, cong Ac lent]
+30.4 +19.0 51 +36 +40 очень
душно
1019.8 994.6
15 21.08 С 5 15 км 4/1 1000 м
[Cu med, cong Ac lent Ci fib]
+30.2 +19.1 51 +36 +37 очень
душно
1019.8 994.6
20 21.08 СЗ 4 15 км 1/0
[Ac lent]
+22.4 +15.5 65 +26 +26 жарко 1023.1 997.1
06 22.08 СЗ 1 15 км 1/0 2000 м
[Ac lent]
+18.6 +16.2 86 +21 +23 комфорт 1025.0 998.6 +16.6 +31.5
07 22.08 СЗ 2 15 км 1/1 1000 м
[Cu hum]
+20.4 +15.8 75 +24 +29 комфорт 1024.8 998.6
08 22.08 С 3 15 км 1/1 1000 м
[Cu hum]
+22.0 +15.5 67 +26 +33 душно 1024.7 998.6
09 22.08 СЗ 2 15 км 1/1 1000 м
[Cu hum]
+23.2 +16.2 65 +28 +39 душно 1024.5 998.6
10 22.08 С 2 15 км 1/1 1000 м
[Cu hum]
+24.4 +16.0 59 +28 +41 душно 1024.4 998.6
11 22.08 СЗ 2 15 км 1/1 1000 м
[Cu hum]
+25.2 +16.3 58 +29 +42 душно 1023.9 998.1
12 22.08 С 3 15 км 1/1 1000 м
[Cu hum]
+26.4 +16.8 56 +30 +41 душно 1023.3 997.7
13 22.08 С 2 15 км 1/1 1000 м
[Cu hum]
+27.4 +17.1 53 +31 +41 душно 1022.8 997.3
14 22.08 СВ 2 15 км 1/0
[Ac lent]
+27.6 +16.7 51 +31 +38 душно 1022.6 997.1
15 22.08 С 3 15 км 1/0
[Ac lent]
+27.6 +17.0 52 +31 +35 душно 1023.1 997.6
20 22.08 З 1 20 км 1/0
[Ac lent]
+23.8 +17.2 67 +28 +28 душно 1022.5 996.7

 

Местоположение метеостанции Градачац (Босния и Герцеговина): широта 44.88 долгота 18.43 высота над уровнем моря 140 м.

В архиве по умолчанию представлена погода в Градачаце за последнюю неделю. Архивные данные за месяц целиком и за предыдущие месяцы, начиная с января 2011 года, Вы можете получить, выбрав интересующий диапазон дат из раскрывающегося списка и нажав кнопку "Ввод!".


*Определитесь, кто Вы:
робот инопланетянин человек

Внимание! Время в таблицах - всемирное. Для получения местного времени необходимо прибавить поправку, которая равна 1 ч.

Смотрите также архив погоды в соседних городах и на ближайших метеорологических станциях:

Погода в Градиште (Хорватия) (37 км)
Погода в Тузле (Босния и Герцеговина) (42 км)
Погода в Славонски-Броде (Хорватия) (47 км)
Погода в Осиек-Чепине (Хорватия) (70 км)
Погода в Осиек аэропорту (Хорватия) (72 км)
Погода в Лознице (Сербия) (73 км)
Погода в Зенице (Босния и Герцеговина) (85 км)
Погода в Сремска-Митровице (Сербия) (91 км)
Погода в Баня-Луке (Босния и Герцеговина) (96 км)
Погода в Яйце (Босния и Герцеговина) (109 км)

Пояснения к столбцам:

Ветер - указаны скорость ветра в м/с - средняя за 10 мин, порывы в срок и между сроками (в фигурных скобках) и направление, откуда дует ветер: С - северный, СВ - северо-восточный, В - восточный, ЮВ - юго-восточный, Ю - южный, ЮЗ - юго-западный, З - западный, СЗ - северо-западный.
Видимость - горизонтальная дальность видимости в метрах или километрах. При видимости от 1 до 10 км при отсутствии осадков обычно наблюдается дымка, при ухудшении видимости до 1 км и менее - туман. В сухую погоду видимость может ухудшаться дымом, пылью или мглою.
Явления - указаны атмосферные явления, наблюдавшиеся в срок или в последний час перед сроком; фигурными скобками обозначены явления, наблюдавшиеся между сроками (за 1-3 часа до срока); квадратными скобками обозначены град или гололедные отложения с указанием их диаметра в мм.
Облачность - указаны через наклонную черту общая и нижняя облачность в баллах и высота нижней границы облаков в метрах; квадратными скобками обозначены формы облаков: Ci - перистые, Cs - перисто-слоистые, Cc - перисто-кучевые, Ac - высококучевые, As - высокослоистые, Sc - слоисто-кучевые, Ns - слоисто-дождевые, Cu - кучевые, Cb - кучево-дождевые. Подробнее классификацию облаков см. в Атласе облаков (PDF).
T - Температура воздуха - температура, измеренная на высоте 2 м над землей.
Td - Температура точки росы - температура, при понижении до которой содержащийся в воздухе водяной пар достигнет насыщения.
f - Относительная влажность воздуха - влажноcть воздуха, измеренная на высоте 2 м над землей.
Te - Эффективная температура - температура, которую ощущает одетый по сезону человек в тени. Характеристика душности погоды. При расчете учитывается влияние влажности воздуха и скорости ветра на теплоощущения человека.
Tes - Эффективная температура на солнце - температура, которую ощущает человек, с поправкой на солнечный нагрев. Характеристика знойности погоды. Зависит от высоты солнца над горизонтом, облачности и скорости ветра. Ночью, в пасмурную погоду, а также при ветре 12 м/с и более поправка равна нулю.
P - Атмосферное давление - приведенное к уровню моря атмосферное давление.
Po - Атмосферное давление - измеренное на уровне метеостанции атмосферное давление.
Tmin - Минимальная температура - минимум температуры воздуха на высоте 2 м над землей.
Tmax - Максимальная температура - максимум температуры воздуха на высоте 2 м над землей.
R - Количество осадков - Количество выпавших осадков за период времени, мм. При наведении курсора мыши на число - период времени, за который выпало указанное количество осадков.
R24 - Количество осадков - Количество выпавших осадков за 24 часа, мм.
S - Снежный покров - Высота снежного покрова, см. При наведении курсора мыши на число - состояние снежного покрова и степень покрытия местности в баллах.